#timestamp,LO_Frequency,Hit,StdDev 
1654876815.8,286046998.1,N
1654876835.6,286047001.0,N
1654876855.5,286046998.1,N
1654876875.3,286047000.3,N
1654876895.1,286047000.9,N
1654876915.9,286047001.1,N
1654876935.7,286047000.7,N
1654876955.5,286047000.6,N
1654876975.4,286047000.3,N
1654876995.2,286047000.4,N
1654877015.1,286047000.4,N
1654877016.0,286047000.4,N
1654877035.8,286047000.3,N
1654877055.6,286046998.1,N
1654877075.5,286047001.2,N
1654877095.3,286047000.7,N
1654877115.1,286046998.1,N
1654877135.9,286046999.9,N
1654877155.7,286046999.7,N
1654877175.6,286047000.4,N
1654877195.4,286047000.2,N
1654877215.2,286047000.3,N
1654877235.1,286047000.5,N
1654877236.0,286047000.5,N
1654877255.8,286047000.1,N
1654877275.7,286047000.2,N
1654877295.5,286046999.9,N
1654877315.4,286047000.1,N
1654877335.2,286047002.3,N
1654877355.0,286047000.0,N
1654877355.9,286047000.0,N
1654877375.8,286047000.3,N
1654877395.6,286047000.6,N
1654877415.4,286046999.9,N
1654877435.3,286047000.0,N
1654877455.1,286047000.3,N
1654877475.9,286047000.0,N
1654877495.7,286047000.5,N
1654877515.5,286046999.7,N
1654877535.4,286047000.1,N
1654877555.2,286047002.5,Y
1654877575.0,286047002.8,P
1654877576.0,286047002.8,N
1654877595.8,286047002.4,N
1654877615.6,286046999.7,N
1654877635.5,286046999.7,N
1654877655.3,286046999.7,N
1654877675.1,286047002.8,N
1654877695.9,286047002.6,N
1654877715.7,286047002.2,N
1654877735.6,286047002.5,N
1654877755.4,286047002.5,N
1654877775.2,286047002.1,N
1654877795.1,286047002.1,N
1654877796.0,286047002.1,N
1654877815.8,286047000.1,N
1654877835.6,286047002.3,N
1654877855.5,286047002.7,N
1654877875.3,286046999.8,N
1654877895.2,286047002.4,N
1654877915.9,286047002.5,N
1654877935.7,286047002.8,N
1654877955.6,286047002.8,N
1654877975.4,286047002.6,N
1654877995.2,286047001.8,N
1654878015.1,286046999.7,N
1654878016.0,286046999.7,N
1654878035.8,286046999.7,N
1654878055.7,286047002.8,N
1654878075.5,286047001.9,N
1654878095.3,286047002.2,N
1654878115.2,286047001.9,N
1654878135.0,286047002.5,N
1654878135.9,286047002.5,N
1654878155.8,286047002.2,N
1654878175.6,286047002.5,N
1654878195.4,286047002.6,N
1654878215.3,286046999.7,N
1654878235.1,286047002.6,N
1654878255.8,286047002.2,N
1654878275.7,286047002.2,N
1654878295.5,286047004.1,Y
1654878315.4,286047000.4,P
1654878335.2,286046998.1,N
1654878355.0,286046998.5,N
1654878355.9,286046998.5,N
1654878375.8,286046998.3,N
1654878395.6,286046998.3,N
1654878415.4,286046998.8,N
1654878435.3,286047001.1,N
1654878455.1,286047000.3,N
1654878505.9,286047000.6,E
1654878515.8,286047000.8,N
1654878535.7,286047001.1,P
1654878555.5,286046999.0,P
1654878575.3,286046999.5,N
1654878595.2,286046999.5,N
1654878615.9,286046999.5,N
1654878635.7,286046999.3,N
1654878655.6,286046998.5,N
1654878675.4,286046998.1,N
1654878695.2,286046998.6,N
1654878715.1,286046998.1,N
1654878716.0,286046998.1,N
1654878735.8,286046998.3,N
1654878755.7,286047001.1,N
1654878775.5,286047001.2,N
1654878795.3,286046998.2,N
1654878815.2,286046998.3,N
1654878835.0,286046998.3,N
1654878835.9,286046998.3,N
1654878855.8,286046998.8,N
1654878875.6,286046998.8,N
1654878895.4,286046998.9,N
1654878915.3,286046998.7,N
1654878935.1,286046999.1,N
1654878955.8,286046996.5,Y
1654878975.7,286046998.5,P
1654878995.5,286047000.7,N
1654879015.4,286046998.5,N
1654879035.2,286046998.3,N
1654879055.0,286047000.8,N
1654879055.9,286047000.8,N
1654879075.8,286046998.6,N
1654879095.6,286047001.2,N
1654879115.4,286047000.3,N
1654879135.3,286046998.2,N
1654879155.1,286047001.2,N
1654879175.9,286046998.5,N
1654879195.7,286046998.6,N
1654879215.5,286047001.2,N
1654879235.4,286046998.2,N
1654879255.2,286047000.8,N
1654879275.0,286046998.6,N
1654879275.9,286046998.6,N
1654879295.8,286046998.8,N
1654879315.6,286046998.2,N
1654879335.5,286046998.8,N
1654879355.3,286046999.5,N
1654879375.1,286046999.0,N
1654879395.9,286047000.8,N
1654879415.7,286047000.9,N
1654879435.5,286046999.8,N
1654879455.4,286047000.3,N
1654879475.2,286047002.7,N
1654879495.1,286047002.4,N
1654879496.0,286047002.4,N
1654879515.8,286047001.5,N
1654879535.6,286047002.3,N
1654879555.5,286046998.4,N
1654879575.3,286046998.9,N
1654879595.1,286046998.9,N
1654879645.9,286046998.1,E
1654879655.8,286047001.0,N
1654879675.7,286047002.0,P
1654879695.5,286047003.5,P
1654879715.3,286047001.5,N
1654879735.2,286047002.3,N
1654879755.0,286047001.7,N
1654879755.9,286047001.7,N
1654879775.8,286046999.7,N
1654879795.6,286047002.5,N
1654879815.4,286046999.7,N
1654879835.3,286047000.6,N
1654879855.1,286047001.2,N
1654879875.8,286047000.5,N
1654879895.7,286047000.1,N
1654879915.5,286047000.1,N
1654879935.4,286047000.1,N
1654879955.2,286047000.2,N
1654879975.0,286047000.7,N
1654879975.9,286047000.7,N
1654879995.8,286047000.1,N
1654880015.6,286046999.3,N
1654880035.4,286046999.4,N
1654880055.3,286046996.6,Y
1654880075.1,286046997.9,P
1654880095.9,286046995.9,N
1654880115.7,286046995.5,N
1654880135.5,286046997.1,N
1654880155.4,286046999.2,N
1654880175.2,286047002.6,N
1654880195.1,286047001.6,N
1654880196.0,286047001.6,N
1654880215.8,286047000.5,N
1654880235.6,286047001.1,N
1654880255.5,286047000.7,N
1654880275.3,286047000.8,N
1654880295.1,286047000.8,N
1654880315.9,286046998.6,N
1654880335.7,286046998.8,N
1654880355.6,286046998.4,N
1654880375.4,286046998.6,N
1654880395.2,286046996.7,N
